Shaw AFB, SC

6:47 PM EDT on May 24, 2017 (GMT -0400)
Shaw Air Force Base

Weather History for KSSC - November, 2012

Change the Weather History Date:

Wednesday, November 14, 2012

  Actual Average Record
Temperature  
Mean Temperature 47 °F -  
Max Temperature 51 °F 63 °F 80 °F (2005)
Min Temperature 43 °F 40 °F 25 °F (2013)
Degree Days  
Heating Degree Days 18    
Moisture  
Dew Point 33 °F    
Average Humidity 56    
Maximum Humidity 71    
Minimum Humidity 47    
Precipitation  
Precipitation 0.00 in - - ()
Sea Level Pressure  
Sea Level Pressure 30.35 in    
Wind  
Wind Speed 14 mph (NE)    
Max Wind Speed 20 mph    
Max Gust Speed 26 mph    
Visibility 10 miles    
Events      
Averages and records for this station are not official NWS values.
T = Trace of Precipitation, MM = Missing Value Source: NWS Daily Summary

Daily Weather History Graph

Daily Weather History Graph

Search for Another Location

Airport or City:

Trip Planner

Search our weather history database for the weather conditions in past years. The results will help you decide how hot, cold, wet, or windy it might be!

Date:

Astronomy

Nov. 14, 2012 Rise Set
Actual Time 6:53 AM EST 5:18 PM EST
Civil Twilight 6:27 AM EST 5:45 PM EST
Nautical Twilight 5:57 AM EST 6:15 PM EST
Astronomical Twilight 5:27 AM EST 6:44 PM EST
Moon 7:38 AM EST (11/14) 6:08 PM EST (11/14)
Length of Visible Light 11h 17m
Length of Day
10h 24m
New Moon, 1% of the Moon is Illuminated
Nov 14
New Moon
Nov 20
First Quarter
Nov 28
Full
Dec 6
Last Quarter
Dec 13
New

Hourly Weather History & Observations

Time (EST) Temp. Windchill Dew Point Humidity Pressure Visibility Wind Dir Wind Speed Gust Speed Precip Events Conditions
12:55 AM 49.1 °F - 39.9 °F 71% 30.34 in 10.0 mi NE 17.3 mph 23.0 mph N/A   Overcast
1:55 AM 48.2 °F - 36.3 °F 63% 30.33 in 10.0 mi NE 18.4 mph - N/A   Overcast
2:55 AM 47.3 °F - 35.8 °F 64% 30.33 in 10.0 mi NE 18.4 mph 23.0 mph N/A   Overcast
3:55 AM 46.4 °F 40.4 °F 35.2 °F 65% 30.34 in 10.0 mi NE 13.8 mph - N/A   Overcast
4:55 AM 46.0 °F 39.9 °F 35.4 °F 66% 30.35 in 10.0 mi NE 13.8 mph - N/A   Overcast
5:55 AM 45.5 °F 38.9 °F 34.5 °F 65% 30.37 in 10.0 mi NNE 15.0 mph - N/A   Overcast
6:13 AM 44.6 °F 37.8 °F 33.8 °F 66% 30.38 in 10.0 mi NE 15.0 mph - N/A   Overcast
6:55 AM 44.4 °F 37.2 °F 34.5 °F 68% 30.38 in 10.0 mi NE 16.1 mph - N/A   Overcast
7:55 AM 43.9 °F 36.8 °F 33.8 °F 68% 30.40 in 10.0 mi NNE 15.0 mph - N/A   Overcast
8:32 AM 44.6 °F 38.1 °F 32.0 °F 61% 30.41 in 10.0 mi NE 13.8 mph - N/A   Overcast
8:55 AM 45.1 °F 37.3 °F 31.5 °F 59% 30.41 in 10.0 mi NE 19.6 mph 26.5 mph N/A   Overcast
9:55 AM 44.8 °F 37.4 °F 30.6 °F 57% 30.42 in 10.0 mi NE 17.3 mph - N/A   Overcast
10:22 AM 44.6 °F 37.4 °F 30.2 °F 57% 30.42 in 10.0 mi NE 16.1 mph - N/A   Light Drizzle
10:28 AM 44.6 °F 37.4 °F 30.2 °F 57% 30.42 in 10.0 mi NE 16.1 mph - N/A   Overcast
10:55 AM 46.2 °F 40.1 °F 31.3 °F 56% 30.42 in 10.0 mi NE 13.8 mph - 0.00 in   Overcast
11:55 AM 49.3 °F - 32.5 °F 53% 30.39 in 10.0 mi NE 11.5 mph - N/A   Overcast
12:55 PM 50.2 °F - 32.7 °F 51% 30.36 in 10.0 mi NE 13.8 mph - N/A   Overcast
1:55 PM 51.1 °F - 34.0 °F 52% 30.34 in 10.0 mi NE 10.4 mph - N/A   Overcast
2:53 PM 51.8 °F - 33.8 °F 50% 30.33 in 10.0 mi ENE 9.2 mph - N/A   Light Drizzle
2:55 PM 51.1 °F - 34.3 °F 53% 30.33 in 10.0 mi NE 9.2 mph - 0.00 in   Light Drizzle
2:59 PM 51.8 °F - 33.8 °F 50% 30.35 in 10.0 mi ENE 9.2 mph - N/A   Overcast
3:03 PM 51.8 °F - 33.8 °F 50% 30.33 in 10.0 mi NE 11.5 mph - N/A   Overcast
3:49 PM 51.8 °F - 33.8 °F 50% 30.32 in 10.0 mi NE 11.5 mph - N/A   Light Drizzle
3:55 PM 51.8 °F - 34.3 °F 51% 30.32 in 10.0 mi NE 10.4 mph - 0.00 in   Light Drizzle
4:01 PM 51.8 °F - 33.8 °F 50% 30.32 in 10.0 mi NE 9.2 mph - N/A   Overcast
4:55 PM 51.3 °F - 34.2 °F 52% 30.31 in 10.0 mi NE 11.5 mph - 0.00 in   Overcast
5:55 PM 51.1 °F - 33.6 °F 51% 30.32 in 10.0 mi NNE 10.4 mph - N/A   Overcast
6:55 PM 50.9 °F - 32.9 °F 50% 30.33 in 10.0 mi NNE 10.4 mph - N/A   Overcast
7:55 PM 50.4 °F - 31.1 °F 48% 30.33 in 10.0 mi NNE 11.5 mph - N/A   Overcast
8:52 PM 50.0 °F - 30.2 °F 47% 30.33 in 10.0 mi NNE 12.7 mph - N/A   Overcast
8:55 PM 49.3 °F - 31.1 °F 50% 30.32 in 10.0 mi NNE 13.8 mph - N/A   Overcast
9:38 PM 50.0 °F - 30.2 °F 47% 30.34 in 10.0 mi NE 10.4 mph - N/A   Overcast
9:55 PM 49.3 °F - 30.0 °F 48% 30.33 in 10.0 mi NNE 10.4 mph - N/A   Overcast
10:55 PM 49.3 °F - 29.7 °F 47% 30.31 in 10.0 mi NE 10.4 mph - N/A   Overcast
11:55 PM 48.6 °F - 30.4 °F 50% 30.30 in 10.0 mi ENE 10.4 mph - N/A   Overcast